Weather in Indianapolis

United States     39°46′00″N   86°09′23″W
В апреле 2022 года жителям России запретили посещать сайт meteo.paraplan.net по решению Генеральной прокуратуры. Аудитория сайта уменьшилась в 10 раз. Владельцы сайта не видят смысла в поддержке погодного сервера в таких условиях. Сайт будет закрыт в октябре.
temp.,
°C
wind,
m/s
gust,
m/s
humid.,
%
clouds,
%
prec.,
mm/h
press.,
hPa
HPBL,
m
4 october, tue
tue423:00+14ene27461 0.0 1024206
02:00+12ene25552 0.0 1025168
05:00+10ne23570 0.0 1024112
08:00+9ne24520 0.0 1025133
11:00+15ene24280 0.0 1024415
14:00+20ne23180 0.0 1022909
17:00+22ne22170 0.0 10201157
20:00+18n11250 0.0 102111
5 october, wed
wed523:00+15ene22340 0.0 102148
02:00+13ese11395 0.0 102110
05:00+13ese114050 0.0 102110
08:00+12s004365 0.0 102110
11:00+18sw112956 0.0 1021349
14:00+24sw122150 0.0 10191066
17:00+24wsw1221100 0.0 10171585
20:00+19sw24325 0.0 101878
6 october, thu
thu623:00+16sw23405 0.0 101878
02:00+15s234516 0.0 101791
05:00+14sw255139 0.0 1017151
08:00+14s254848 0.0 1017159
11:00+18ssw483857 0.0 1017532
14:00+24wsw46255 0.0 10151409
17:00+25wnw472912 0.0 10142342
20:00+22nw2639100 0.0 1015213
7 october, fri
fri723:00+18n49494 0.0 1017442
02:00+14n587752 0.0 1019555
05:00+11n5107994 0.4 1022757
08:00+9n611664 0.5 1024805
11:00+10n69475 0.0 10261035
14:00+14n57345 0.0 10251609
17:00+15n46314 0.0 10251957
20:00+11nnw58510 0.0 1026593
8 october, sat
sat823:00+10n37560 0.0 1028379
02:00+8n25610 0.0 1028322
05:00+7nne12630 0.0 1028219
08:00+6wsw11660 0.0 102967
11:00+11w23430 0.0 1029882
14:00+15w34260 0.0 10261463
17:00+17w35220 0.0 10231706
20:00+13wsw25300 0.0 1023136